Location: Ferintosh
(52.7647°N, 112.9692°W)
Time: 22:17:57
(UTC+00:00)

Transit 2A Rocket - Pass Details

Date: 22 May 2024
Orbit: 583 x 910 km, 66.7° (Epoch: 12 June)

Event Time Altitude Azimuth Distance (km) Brightness Sun altitude
Rises 11:49:00 0° 212° (SSW) 2,997 7.5 2.3°
Reaches altitude 10° 11:51:12 10° 211° (SSW) 2,132 6.8 2.6°
Maximum altitude 11:56:03 77° 126° (SE) 762 5.2 3.2°
Drops below altitude 10° 12:01:27 10° 42° (NE) 2,366 9.2 4.0°
Sets 12:04:00 0° 41° (NE) 3,352 9.9 4.3°
